DW5164 Weather Reports


time (UTC)temp
C
wind
direction
speed
KPH
gust
KPH
rain 1hr
cm
rain 24hr
cm
rain mn
cm
humidity
%
barometer
mb
20260505061531 15 125 3.2 8.0 0.00 0.00 0.00 88 1012.2
20260505061030 15 113 6.4 12.9 0.00 0.00 0.00 88 1012.2
20260505060531 15 112 1.6 12.9 0.00 0.00 0.00 88 1012.2
20260505055530 15 111 1.6 3.2 0.00 0.00 0.00 88 1012.1
20260505054530 15 68 0.0 4.8 0.00 0.00 0.00 86 1011.9
20260505054046 15 71 4.8 4.8 0.00 0.00 0.00 85 1011.8
20260505053032 14 71 4.8 8.0 0.00 0.00 0.00 84 1011.8
20260505052531 14 80 3.2 4.8 0.00 0.00 0.00 84 1011.8
20260505051530 14 64 3.2 8.0 0.00 0.00 0.00 83 1011.8
20260505050530 14 49 3.2 4.8 0.00 0.00 0.00 85 1011.8
20260505041529 15 84 0.0 3.2 0.00 0.00 0.00 78 1011.9
20260505041030 15 132 0.0 0.0 0.00 0.00 0.00 76 1011.9
20260505040029 15 267 0.0 0.0 0.00 0.00 0.00 74 1011.9
20260505035529 15 267 0.0 1.6 0.00 0.00 0.00 70 1011.9
20260505035029 15 299 0.0 1.6 0.00 0.00 0.00 70 1011.8
20260505034529 15 333 0.0 0.0 0.00 0.00 0.00 70 1011.8
20260505033529 15 336 0.0 1.6 0.00 0.00 0.00 72 1011.9
20260505033030 15 325 0.0 1.6 0.00 0.00 0.00 72 1011.9
20260505032529 15 196 0.0 0.0 0.00 0.00 0.00 71 1012.0
20260505032030 15 196 0.0 0.0 0.00 0.00 0.00 71 1012.1
20260505031029 15 196 0.0 4.8 0.00 0.00 0.00 70 1012.2
20260505030529 15 207 1.6 3.2 0.00 0.00 0.00 70 1012.3
20260505030029 15 216 1.6 3.2 0.00 0.00 0.00 70 1012.3
20260505025531 15 216 1.6 4.8 0.00 0.00 0.00 69 1012.3
20260505024529 15 215 1.6 4.8 0.00 0.00 0.00 70 1012.3
20260505024029 15 211 3.2 4.8 0.00 0.00 0.00 71 1012.3
20260505023530 15 171 0.0 1.6 0.00 0.00 0.00 71 1012.3
20260505022529 15 199 3.2 4.8 0.00 0.00 0.00 72 1012.4
20260505022029 15 105 0.0 0.0 0.00 0.00 0.00 70 1012.3
20260505021529 15 105 1.6 4.8 0.00 0.00 0.00 69 1012.3
20260505021030 15 106 3.2 4.8 0.00 0.00 0.00 68 1012.4
20260505020030 15 60 0.0 0.0 0.00 0.00 0.00 69 1012.1
20260505015529 15 60 0.0 0.0 0.00 0.00 0.00 70 1012.0
20260505015030 15 60 0.0 0.0 0.00 0.00 0.00 70 1012.3
20260505014029 15 60 0.0 0.0 0.00 0.00 0.00 69 1012.4
20260505013530 15 60 0.0 0.0 0.00 0.00 0.00 70 1012.5
20260505013029 15 60 0.0 0.0 0.00 0.00 0.00 70 1012.6
20260505012529 15 60 0.0 0.0 0.00 0.00 0.00 70 1012.8
20260505012030 15 60 0.0 0.0 0.00 0.00 0.00 69 1012.8
20260505011529 15 60 0.0 0.0 0.00 0.00 0.00 69 1012.9
20260505011044 15 60 0.0 0.0 0.00 0.00 0.00 69 1012.9
20260505010529 15 60 0.0 0.0 0.00 0.00 0.00 69 1013.0
20260505010029 15 60 0.0 0.0 0.00 0.00 0.00 69 1013.1
20260505005536 15 60 0.0 0.0 0.00 0.00 0.00 68 1013.2
20260505005030 15 60 0.0 0.0 0.00 0.00 0.00 69 1013.2
20260505004529 15 60 0.0 0.0 0.00 0.00 0.00 68 1013.3
20260505004029 15 60 0.0 0.0 0.00 0.00 0.00 68 1013.3
20260505003529 15 60 0.0 1.6 0.00 0.00 0.00 67 1013.3
20260505002031 16 11 0.0 0.0 0.00 0.00 0.00 65 1013.5
20260505001529 16 11 0.0 0.0 0.00 0.00 0.00 65 1013.5
20260505001044 16 341 1.6 9.7 0.00 0.00 0.00 64 1013.5
20260505000028 16 293 8.0 11.3 0.00 0.00 0.00 64 1013.5
20260504235529 16 283 9.7 14.5 0.00 0.00 0.00 63 1013.5
20260504235028 16 294 9.7 16.1 0.00 0.00 0.00 64 1013.5
20260504233529 16 270 8.0 11.3 0.00 0.00 0.00 65 1013.7
20260504231529 15 272 4.8 11.3 0.00 0.00 0.00 65 1013.9
20260504231029 15 280 8.0 9.7 0.00 0.00 0.00 65 1014.0
20260504230528 15 275 6.4 9.7 0.00 0.00 0.00 64 1014.0
20260504225528 16 292 6.4 8.0 0.00 0.00 0.00 64 1014.1
20260504224529 16 301 4.8 8.0 0.00 0.00 0.00 64 1014.2
20260504224029 16 297 4.8 9.7 0.00 0.00 0.00 63 1014.3
20260504222529 15 280 8.0 11.3 0.00 0.00 0.00 65 1014.4
20260504222028 15 272 4.8 8.0 0.00 0.00 0.00 65 1014.5
20260504221528 15 271 4.8 8.0 0.00 0.00 0.00 65 1014.5
20260504220029 15 255 4.8 8.0 0.00 0.00 0.00 66 1014.5
20260504215528 15 246 6.4 8.0 0.00 0.00 0.00 67 1014.5
20260504214528 16 59 0.0 0.0 0.00 0.00 0.00 67 1014.4
20260504214028 16 59 0.0 1.6 0.00 0.00 0.00 67 1014.4
20260504213529 16 59 0.0 0.0 0.00 0.00 0.00 67 1014.4
20260504213028 16 59 0.0 0.0 0.00 0.00 0.00 67 1014.5
20260504212528 16 59 0.0 0.0 0.00 0.00 0.00 67 1014.5
20260504212029 16 59 0.0 0.0 0.00 0.00 0.00 66 1014.5
20260504211528 16 59 0.0 3.2 0.00 0.00 0.00 66 1014.5
20260504211028 16 98 1.6 3.2 0.00 0.00 0.00 65 1014.6
20260504205531 16 119 8.0 11.3 0.00 0.00 0.00 63 1014.7
20260504205028 17 121 1.6 4.8 0.00 0.00 0.00 61 1014.6
20260504204528 17 298 0.0 0.0 0.00 0.00 0.00 59 1014.5
20260504204028 17 298 0.0 0.0 0.00 0.00 0.00 58 1014.4
20260504203529 17 298 0.0 0.0 0.00 0.00 0.00 57 1014.5
20260504203028 18 298 0.0 1.6 0.00 0.00 0.00 56 1014.4
20260504202531 18 299 0.0 1.6 0.00 0.00 0.00 56 1014.4
20260504201528 18 303 3.2 4.8 0.00 0.00 0.00 55 1014.3
20260504201028 18 295 1.6 4.8 0.00 0.00 0.00 56 1014.4
20260504200528 18 302 3.2 4.8 0.00 0.00 0.00 55 1014.3
20260504200031 18 294 1.6 3.2 0.00 0.00 0.00 54 1014.3
20260504195528 18 311 3.2 4.8 0.00 0.00 0.00 54 1014.2
20260504195028 18 316 3.2 4.8 0.00 0.00 0.00 54 1014.2
20260504194027 19 315 3.2 4.8 0.00 0.00 0.00 53 1014.2
20260504193528 19 296 3.2 4.8 0.00 0.00 0.00 54 1014.2
20260504192530 19 294 1.6 4.8 0.00 0.00 0.00 53 1014.1
20260504191529 20 307 1.6 3.2 0.00 0.00 0.00 52 1014.0
20260504191029 20 313 1.6 4.8 0.00 0.00 0.00 52 1014.0
20260504185536 20 315 1.6 4.8 0.00 0.00 0.00 50 1013.9
20260504183528 21 293 3.2 4.8 0.00 0.00 0.00 49 1013.9
20260504181027 22 310 3.2 4.8 0.00 0.00 0.00 46 1013.8
20260504180042 22 313 3.2 4.8 0.00 0.00 0.00 45 1013.9
20260504175027 23 298 3.2 4.8 0.00 0.00 0.00 44 1013.8
20260504174530 23 307 4.8 8.0 0.00 0.00 0.00 43 1013.8
20260504174035 23 308 3.2 9.7 0.00 0.00 0.00 42 1013.8
20260504173529 23 305 4.8 9.7 0.00 0.00 0.00 42 1013.7
20260504173035 23 311 8.0 9.7 0.00 0.00 0.00 41 1013.8
20260504172527 24 310 6.4 11.3 0.00 0.00 0.00 40 1013.7
20260504172028 24 306 8.0 12.9 0.00 0.00 0.00 39 1013.7
20260504171527 25 295 8.0 12.9 0.00 0.00 0.00 39 1013.7
20260504170527 25 308 8.0 12.9 0.00 0.00 0.00 37 1013.7
20260504150528 25 34 3.2 4.8 0.00 0.00 0.00 37 1014.3
20260504140543 25 181 3.2 9.7 0.00 0.00 0.00 38 1014.6
20260504130527 26 240 8.0 14.5 0.00 0.00 0.00 37 1015.1
20260504110526 25 298 3.2 12.9 0.00 0.00 0.00 37 1016.0
20260504100526 23 249 4.8 11.3 0.00 0.00 0.00 42 1016.6
20260504081526 21 278 4.8 8.0 0.00 0.00 0.00 53 1016.9
20260504081025 21 284 4.8 8.0 0.00 0.00 0.00 53 1016.8
20260504080528 21 318 3.2 4.8 0.00 0.00 0.00 55 1016.8